Flag for U.S.A. Weather past 2 weeks in Atlantic City, New Jersey, U.S.A.

Now
44 °F

Clear.


Feels Like: 40 °F
Forecast: 40 / 49 °F
Wind: 8 mph from West

Location: Atlantic City International Airport

Current Time: Mar 31, 2015 at 2:27:12 AM

Latest Report: Mar 31, 2015 at 1:54 AM


Visibility: 10 mi

Pressure: 29.88 "Hg

Humidity: 43%

Dew point: 23 °F

Location of Atlantic CityLocation

Historic Weather in Atlantic City — Graph

°F

Atlantic City temperature yesterday

Maximum temperature yesterday: 57 °F (at 2:54 PM)
Minimum temperature yesterday: 34 °F (at 12:54 AM)
Average temperature yesterday: 44 °F

Past Weeks' High & Low Weather Summary

 TemperatureHumidityPressure
High70 °F (Mar 17, 12:54 PM)100% (Mar 26, 11:00 PM)30.42 "Hg (Mar 26, 11:00 PM)
Low19 °F (Mar 19, 4:54 AM)18% (Mar 19, 1:54 PM)29.55 "Hg (Mar 17, 12:54 PM)
Average40 °F60%30.05 "Hg
* Reported Mar 16 12:54 AM — Mar 31 12:54 AM, Atlantic City, Weather by CustomWeather, © 2015

Note: Actual official high and low records may vary slightly from our data, if they occured in-between our weather recording intervals... More about our weather records

Advertising

Atlantic City weather history for previous 24 hours

 ConditionsComfort  
Time TempWeatherWind HumidityBarometerVisibility
12:54 AM
Tue, Mar 31
45 °FClear.6 mph42%29.89 "Hg10 mi
11:54 PM
Mon, Mar 30
40 °FClear.6 mph55%29.91 "Hg10 mi
10:54 PM43 °FClear.6 mph51%29.91 "Hg10 mi
9:54 PM47 °FClear.N/A42%29.90 "Hg10 mi
8:54 PM49 °FClear.7 mph39%29.89 "Hg10 mi
7:54 PM49 °FPartly sunny.8 mph39%29.85 "Hg10 mi
6:54 PM54 °FScattered clouds.12 mph34%29.83 "Hg10 mi
5:54 PM56 °FMore clouds than sun.12 mph34%29.82 "Hg10 mi
4:54 PM55 °FMostly cloudy.14 mph37%29.81 "Hg10 mi
3:54 PM56 °FPartly sunny.16 mph34%29.80 "Hg10 mi
2:54 PM57 °FScattered clouds.23 mph37%29.81 "Hg10 mi
1:54 PM53 °FPassing clouds.13 mph43%29.84 "Hg10 mi
12:54 PM47 °FOvercast.14 mph54%29.86 "Hg10 mi
11:54 AM45 °FOvercast.18 mph58%29.88 "Hg10 mi
10:54 AM42 °FMostly cloudy.10 mph73%29.90 "Hg10 mi
9:54 AM39 °FOvercast.10 mph79%29.93 "Hg10 mi
8:54 AM37 °FOvercast.14 mph86%29.94 "Hg10 mi
7:54 AM38 °FLight rain. Overcast.10 mph79%29.95 "Hg8 mi
6:54 AM38 °FOvercast.12 mph83%29.96 "Hg10 mi
5:54 AM35 °FMostly cloudy.9 mph88%30.00 "Hg10 mi
4:54 AM38 °FOvercast.10 mph60%30.05 "Hg10 mi
3:54 AM38 °FOvercast.8 mph55%30.07 "Hg10 mi
2:54 AM37 °FClear.9 mph65%30.11 "Hg10 mi
Weather by CustomWeather, © 2015

See weather overviewHow to use our weather pages